Theta_e
289 288 288 288 288 288 288 288 287 287 287 287 286 286 286 286 286 286 286 286 286 286 286 286 286 286 286 286 286 288 292 293 293 296 297 297 298 298 297 297 296 296 296
288 288 288 288 288 288 287 287 287 286 286 285 285 285 285 285 285 285 285 285 285 285 285 285 285 285 286 285 285 286 286 286 288 292 294 294 295 296 297 298 297 296 296
288 288 288 288 288 287 287 286 286 285 285 285 285 285 285 284 284 284 283 284 284 284 284 284 285 284 285 284 285 285 285 285 285 285 286 289 295 295 294 295 297 296 296
289 289 288 288 288 287 286 286 285 285 284 284 284 284 283 283 282 283 282 283 283 284 284 284 284 284 284 284 283 283 284 284 284 285 285 285 286 289 295 294 294 295 295
289 288 288 288 288 287 286 285 284 284 283 283 283 283 283 283 283 282 281 280 280 280 280 281 282 283 283 283 282 283 283 283 283 283 284 285 285 285 286 292 295 293 294
288 288 288 288 287 286 285 284 284 283 283 282 282 283 283 282 281 281 280 279 279 278 277 277 277 278 279 279 279 280 282 283 284 285 286 286 285 286 286 286 289 293 291
288 288 288 288 287 286 284 283 283 282 282 282 283 282 282 281 280 279 278 277 276 275 274 273 273 274 275 276 277 278 279 280 282 283 284 285 286 286 287 287 287 289 292
288 288 288 287 286 284 283 282 282 281 282 282 282 281 281 280 278 277 275 274 273 273 271 271 271 271 272 273 274 275 276 276 277 278 280 282 282 284 287 287 287 288 289
288 288 287 286 284 283 282 282 281 281 281 281 281 280 279 278 276 274 273 272 271 271 270 270 270 271 271 273 274 275 275 275 275 276 278 279 281 283 284 286 287 287 288
287 287 286 284 283 282 281 281 281 281 280 280 279 278 277 276 275 273 271 269 269 269 270 270 271 271 272 273 274 273 273 274 274 275 277 278 278 279 282 284 285 287 287
287 286 285 283 282 281 281 280 280 280 280 279 278 277 276 274 273 272 271 269 270 270 271 271 271 271 272 273 274 274 274 274 275 275 275 275 277 279 280 281 283 286 287
286 285 283 282 281 281 280 280 279 279 279 278 277 276 275 273 273 272 269 270 271 272 271 271 272 272 273 273 274 275 276 276 275 275 274 274 275 277 281 281 282 284 286
284 282 281 281 280 280 279 279 279 278 277 276 275 274 273 273 272 270 270 270 271 272 273 273 274 275 275 275 275 274 274 274 274 274 273 273 273 275 277 280 282 283 284
283 282 280 280 279 278 278 278 278 277 276 275 274 272 270 269 269 269 271 273 273 273 273 273 274 275 274 275 275 275 275 274 274 274 273 273 273 273 275 278 284 283 284
282 280 280 279 278 278 278 277 277 276 275 272 269 269 269 269 270 271 272 272 273 273 274 274 273 273 273 274 274 273 273 274 274 274 273 272 273 273 274 277 282 284 284
281 279 279 278 277 277 277 277 276 275 274 273 271 269 269 269 270 271 271 272 272 272 271 272 273 273 273 273 272 271 272 273 273 272 272 272 272 274 276 278 283 284 284
279 279 278 277 277 276 276 276 276 277 275 274 272 271 268 268 269 270 270 270 270 271 272 272 272 273 273 273 273 273 273 273 272 272 272 272 274 275 277 281 280 283 284
278 277 277 276 276 275 275 274 274 273 274 275 274 271 271 270 268 268 268 270 272 272 271 271 271 271 272 272 274 274 274 273 273 273 273 274 275 276 280 282 283 283 285
277 276 276 275 274 274 274 274 273 272 272 272 273 273 272 272 270 270 270 270 270 270 270 270 270 270 271 272 273 274 275 276 276 275 275 276 277 278 280 281 282 282 283
275 275 274 274 273 273 273 273 272 272 272 271 271 270 272 271 271 271 270 270 270 269 269 269 270 270 270 271 272 273 275 276 276 277 278 278 279 280 280 281 283 283 283
274 273 273 272 272 272 272 272 272 271 271 271 270 270 267 268 269 270 270 270 269 269 269 269 269 269 269 270 271 272 273 275 276 277 277 278 279 280 280 281 281 282 283
272 272 271 271 270 270 271 271 271 271 270 270 270 270 269 269 269 269 269 269 269 269 269 269 269 269 269 269 270 271 272 273 274 276 277 277 278 279 279 280 281 281 281
270 270 269 269 269 269 270 270 270 270 270 269 269 269 269 269 269 269 269 269 269 269 269 269 269 270 270 270 270 269 270 272 272 273 275 276 276 277 277 278 279 279 280
268 268 268 268 268 268 269 269 268 269 269 269 269 269 269 269 269 269 269 269 269 270 269 269 269 269 270 270 270 270 270 271 272 273 273 274 274 275 276 276 276 277 277
266 267 268 268 268 268 268 268 268 268 268 268 269 269 269 269 269 269 269 269 269 269 269 269 269 270 270 270 270 270 270 271 272 272 272 273 273 274 274 274 274 275 275
265 266 267 267 268 268 268 268 268 268 268 268 268 268 268 268 268 268 268 269 269 269 269 269 269 270 270 270 270 270 270 270 272 272 272 272 272 273 273 273 273 273 273
Wind_Speed
2 4 7 9 11 14 16 18 19 20 22 23 26 28 30 32 34 36 36 36 36 35 33 34 33 31 30 29 27 27 28 31 42 49 49 49 48 47 43 42 39 40 39
5 8 11 13 15 17 19 21 23 23 24 27 29 32 34 37 39 40 41 41 42 44 43 42 40 37 37 36 33 32 31 30 33 41 42 45 48 45 46 46 46 46 45
7 11 14 17 19 21 23 25 26 27 30 33 37 41 44 46 46 45 44 45 45 44 44 45 47 45 44 41 39 39 37 36 35 37 42 40 41 41 42 45 47 47 48
10 13 16 19 21 23 25 26 27 29 33 37 42 45 47 48 48 48 46 45 45 45 46 47 48 48 48 46 44 42 41 41 39 40 43 43 41 39 39 42 45 46 48
15 16 19 22 24 25 28 28 29 33 38 41 43 45 46 46 47 46 46 47 47 50 50 49 49 49 49 47 43 45 43 44 43 43 46 46 47 42 40 40 42 44 46
19 21 23 25 26 28 29 30 34 38 40 42 44 44 44 45 45 47 47 48 50 51 52 50 46 48 49 44 39 37 35 37 39 37 39 42 48 41 40 38 38 38 44
24 24 25 28 29 31 31 34 37 39 41 42 42 44 46 47 47 47 45 45 47 48 48 45 43 42 38 39 41 37 38 39 38 39 43 43 42 42 37 35 37 40 43
27 27 26 29 31 30 32 36 37 40 41 42 43 44 46 47 46 44 42 41 43 42 40 36 35 36 33 32 33 38 43 47 49 47 50 52 50 44 38 41 39 42 43
28 27 27 29 29 30 34 36 37 40 41 41 43 45 45 45 42 40 37 37 38 38 36 31 31 32 29 26 29 35 40 42 41 40 42 45 47 44 42 40 41 39 42
27 27 28 28 29 33 34 35 37 39 40 42 43 42 42 42 38 36 33 31 34 36 36 36 34 30 28 27 30 35 41 43 42 35 35 40 42 51 48 47 48 43 43
28 27 28 28 30 32 33 34 36 38 40 41 43 42 39 36 35 33 29 29 33 37 39 39 39 32 31 30 30 35 39 38 39 40 45 49 43 44 45 46 50 49 48
27 27 27 27 29 30 32 33 34 36 39 40 41 42 38 34 33 34 29 28 30 34 38 40 42 36 34 34 36 40 39 38 42 44 44 43 44 45 41 44 46 46 49
27 27 27 27 28 28 30 31 33 33 36 39 38 39 40 37 37 37 35 31 32 36 40 40 40 40 39 39 40 39 37 41 44 45 48 48 49 44 46 42 44 46 44
28 28 27 27 27 27 28 29 31 32 34 36 37 40 42 40 37 38 37 41 40 40 41 43 44 41 38 42 46 43 42 43 45 47 46 46 45 43 46 43 43 46 44
28 27 27 28 27 28 28 27 28 29 30 31 32 33 36 36 36 33 34 36 36 37 38 41 42 38 37 38 41 45 47 45 46 48 45 42 40 42 44 50 46 43 42
27 26 26 27 26 27 29 29 22 25 26 27 23 22 26 27 29 30 32 33 32 31 31 31 30 30 33 37 38 37 36 38 43 41 41 40 40 41 37 45 36 46 44
27 27 27 26 26 27 27 28 30 21 20 23 22 23 22 24 26 28 29 27 29 26 24 25 26 28 31 33 34 33 35 37 39 38 36 37 37 40 43 46 55 44 36
26 26 26 25 25 26 26 25 24 25 24 20 20 23 22 23 23 25 25 26 24 23 25 26 27 28 30 31 32 33 37 36 33 32 30 31 31 33 32 22 26 26 32
24 24 24 24 23 24 24 22 21 21 21 20 20 18 21 22 24 23 24 26 28 29 29 28 28 28 28 29 30 31 31 31 27 24 26 27 30 27 25 23 28 36 36
24 23 23 22 22 22 21 20 19 19 19 18 19 21 23 26 25 26 26 26 27 29 30 31 30 29 28 29 29 29 28 26 25 24 23 25 27 27 26 21 25 30 35
23 22 21 21 21 20 18 17 17 17 18 18 17 18 17 19 21 22 24 25 26 27 28 29 30 30 29 29 28 28 26 24 20 17 17 22 29 30 26 22 18 21 27
22 21 20 20 18 17 16 15 16 16 16 17 16 15 16 17 18 20 22 23 24 24 25 26 28 28 29 29 28 28 26 24 21 18 15 13 12 12 15 18 21 22 24
21 20 19 18 17 15 14 14 14 15 15 15 16 17 17 17 19 20 21 22 23 23 24 24 26 27 28 27 28 28 26 23 21 19 16 13 12 9 7 8 12 16 18
19 18 18 17 16 15 14 14 14 15 16 16 17 17 18 19 20 20 21 22 22 22 22 23 23 24 26 26 26 27 27 23 18 15 14 12 11 9 7 6 5 7 10
18 17 18 18 17 16 16 15 16 17 18 19 19 20 20 21 21 21 21 22 22 22 22 22 22 22 22 24 24 26 27 25 19 14 12 11 9 7 6 3 1 3 6
16 17 17 17 17 17 16 17 18 19 19 19 20 20 21 22 21 21 22 22 22 21 21 20 20 20 19 19 21 23 24 24 21 17 14 11 10 9 7 5 4 4 5
Wind_Direction
9 2 358 347 340 336 333 331 329 329 327 326 325 323 321 320 319 317 316 312 308 304 301 300 298 298 297 294 293 290 285 277 276 280 281 281 276 272 266 264 261 260 259
350 347 340 333 330 327 325 326 327 327 326 324 322 320 319 317 315 311 308 305 303 302 300 297 294 292 289 290 289 286 285 285 285 285 283 280 279 277 273 265 261 260 259
324 330 327 323 323 322 322 322 321 321 321 321 320 319 319 317 314 310 307 304 300 297 295 293 292 292 289 286 284 283 282 280 280 284 287 286 282 279 273 269 264 262 260
297 305 309 314 315 314 315 314 314 316 317 317 317 316 315 314 313 313 312 309 304 299 296 293 290 288 289 289 287 283 281 280 280 280 282 284 284 282 279 271 267 262 261
275 287 296 303 306 308 310 309 311 313 313 313 312 311 310 310 311 311 308 305 302 299 296 292 289 289 287 287 286 285 285 282 279 277 277 280 280 279 277 281 274 272 266
267 276 288 297 301 306 306 307 310 311 312 312 312 312 311 310 309 308 306 302 299 296 294 290 286 284 284 285 283 280 277 276 277 275 275 273 273 273 277 277 277 271 268
264 273 286 296 300 303 304 307 309 311 312 313 313 313 313 313 312 311 308 303 299 296 294 292 289 285 280 277 280 280 272 263 259 264 267 267 272 271 272 270 269 269 269
260 269 285 294 296 297 302 307 310 313 313 315 315 315 315 316 316 315 312 305 301 298 299 299 295 295 292 288 282 275 272 273 272 270 264 262 263 263 266 265 264 269 273
261 272 285 290 292 298 306 310 313 313 314 315 316 317 317 317 319 318 312 305 301 301 303 303 299 298 299 296 293 291 291 288 289 278 269 267 264 264 261 259 257 253 253
266 277 285 290 296 305 307 311 314 314 315 316 316 317 318 320 322 317 312 308 306 306 306 309 307 297 297 295 289 288 286 284 283 283 285 285 276 264 254 253 250 248 247
270 280 286 290 299 304 308 314 316 316 316 316 316 318 321 324 321 319 315 307 304 307 307 303 302 301 297 294 290 287 287 295 293 288 283 275 275 278 269 257 249 243 243
275 280 283 289 299 305 309 314 313 315 316 316 318 320 323 324 321 326 318 308 306 300 299 302 307 302 297 294 291 292 290 289 289 284 283 280 273 269 270 260 253 246 241
278 282 285 293 301 306 309 313 315 317 317 318 320 321 325 328 327 330 326 318 309 305 304 303 301 298 297 293 288 291 289 287 284 281 279 273 272 268 267 271 255 250 245
281 283 288 296 302 307 311 316 316 319 318 319 322 326 327 325 318 319 326 323 319 314 310 308 308 306 297 296 297 295 291 290 285 280 275 274 275 271 264 253 255 236 241
279 284 291 298 304 309 312 316 317 320 321 321 318 314 312 313 319 319 315 314 314 312 309 300 298 298 298 299 298 297 297 295 290 290 277 272 271 270 267 248 252 242 233
281 284 291 298 305 309 311 312 315 317 319 320 316 311 311 311 316 316 317 315 315 314 308 308 312 313 313 314 311 302 290 285 284 277 268 272 272 270 262 252 249 235 228
280 285 293 300 305 308 309 311 314 316 317 324 331 334 326 323 325 327 323 323 314 321 319 318 320 322 325 330 327 322 318 301 287 282 278 278 274 272 280 250 249 240 231
281 287 292 297 301 304 306 309 313 319 324 325 329 341 342 340 338 338 339 336 335 338 340 335 333 332 331 332 333 330 328 321 303 293 286 286 283 286 275 267 260 244 221
282 285 289 293 296 299 301 305 309 312 317 325 327 333 334 346 351 345 351 355 356 353 349 345 342 339 338 338 337 336 335 333 323 306 292 286 287 288 293 294 279 250 242
280 283 287 290 293 295 299 303 305 307 313 321 329 334 336 346 345 348 356 358 358 358 358 355 351 347 345 345 344 343 341 344 338 327 314 294 284 287 288 289 273 231 229
278 281 284 285 288 290 295 300 302 306 312 318 328 333 341 333 344 349 353 358 359 359 358 0 1 358 355 351 346 345 345 346 342 339 332 315 298 293 294 286 271 264 252
277 278 278 279 280 284 291 297 300 305 311 315 324 329 333 337 344 348 351 353 356 357 357 357 359 2 2 1 356 348 344 343 344 345 341 336 324 309 298 289 276 265 250
274 273 273 273 275 279 286 292 297 302 306 310 317 323 328 334 338 342 345 347 350 353 354 356 358 359 1 2 5 2 350 345 345 342 339 341 342 338 328 305 281 259 242
266 266 265 266 269 274 279 285 291 297 301 306 310 315 320 324 329 333 335 337 341 345 349 351 354 358 359 360 6 6 2 352 346 346 347 349 352 350 341 317 279 252 236
260 261 265 267 267 270 276 283 288 292 295 300 303 307 312 314 319 323 326 329 333 336 342 346 348 353 357 359 6 10 9 4 359 3 7 9 11 17 19 10 307 198 198
260 264 266 268 270 274 279 284 288 290 293 295 300 303 309 312 317 321 324 326 328 332 335 339 344 348 351 357 3 14 12 8 15 20 26 32 38 46 51 66 84 119 140